{"data":{"norad_id":49137,"epoch":"2026-09-20T01:21:52.939008Z","epoch_age_seconds":79604,"freshness":"FRESH","line1":"1 49137U 21082H   26263.05686272  .00000335  00000+0  36562-4 0  9998","line2":"2 49137  69.9993 145.7909 0002748 271.3742  88.7102 14.97522550275553","mean_motion":14.9752255,"eccentricity":0.0002748,"inclination_deg":69.9993,"raan_deg":145.7909,"arg_perigee_deg":271.3742,"mean_anomaly_deg":88.7102,"bstar":3.6562e-5,"rev_number":27555,"period_min":96.158819110938,"perigee_km":572.64338586595,"apogee_km":576.4645848315,"semimajor_km":6952.6909853487,"source":"CELESTRAK","updated_at":"2026-09-20T09:00:39.247653Z"}}